This demonstration page uses our WeatherBlox Daily Observations layout. Learn more.

Left ArrowRight Arrow

Hourly Observations for July 26, 2015

Temp ( °F °C ) Dew Point ( °F °C ) Humidity (%) Winds ( mph kmh ) Pressure ( in mb ) Visibility ( mi km ) Precip ( " mm )
12:53 am 00:53 Clear 82 27.8 62 16.7 51 51 S 6 9 29.79 1009 10 16 0.00 0.00
1:53 am 01:53 Clear 81 27.2 61 16.1 51 51 SSE 7 11 29.78 1008 10 16 0.00 0.00
2:53 am 02:53 Clear 79 26.1 61 16.1 54 54 SSE 8 13 29.77 1008 10 16 0.00 0.00
3:53 am 03:53 Clear 80 26.7 60 15.6 51 51 SE 8 13 29.75 1007 10 16 0.00 0.00
4:53 am 04:53 Clear 77 25 59 15 54 54 SE 5 7 29.75 1008 10 16 0.00 0.00
5:53 am 05:53 Clear 78 25.6 61 16.1 56 56 ESE 8 13 29.75 1008 10 16 0.00 0.00
6:53 am 06:53 Clear 78 25.6 63 17.2 60 60 ESE 10 17 29.77 1008 10 16 0.00 0.00
7:53 am 07:53 Sunny 78 25.6 64 17.8 62 62 SE 12 19 29.79 1009 10 16 0.00 0.00
8:53 am 08:53 Sunny 82 27.8 65 18.3 56 56 SE 15 24 29.81 1009 10 16 0.00 0.00
9:53 am 09:53 Sunny 86 30 64 17.8 48 48 SSE 9 15 29.82 1010 10 16 0.00 0.00
10:53 am 10:53 Sunny 90 32.2 62 16.7 39 39 Calm 29.81 1009 10 16 0.00 0.00
11:53 am 11:53 Sunny 95 35 56 13.3 27 27 VRB 6 9 29.80 1009 10 16 0.00 0.00
12:53 pm 12:53 Sunny 99 37.2 54 12.2 22 22 undefined N/A 29.78 1009 10 16 0.00 0.00
1:53 pm 13:53 Sunny 100 37.8 53 11.7 21 21 VRB 3 6 29.77 1008 10 16 0.00 0.00
2:53 pm 14:53 Mostly Sunny 104 40 51 10.6 17 17 S 6 9 29.74 1007 10 16 0.00 0.00
3:53 pm 15:53 Mostly Sunny 103 39.4 51 10.6 18 18 VRB 3 6 29.72 1007 10 16 0.00 0.00
4:53 pm 16:53 Sunny 105 40.6 49 9.4 15 15 SW 12 19 29.70 1006 10 16 0.00 0.00
5:53 pm 17:53 Sunny 103 39.4 49 9.4 16 16 S 8 13 29.68 1005 10 16 0.00 0.00
6:53 pm 18:53 Sunny 104 40 51 10.6 17 17 S 13 20 29.67 1005 10 16 0.00 0.00
7:53 pm 19:53 Sunny 102 38.9 50 10 17 17 SE 13 20 29.67 1005 10 16 0.00 0.00
8:53 pm 20:53 Sunny 99 37.2 51 10.6 20 20 SE 7 11 29.68 1005 10 16 0.00 0.00
9:53 pm 21:53 Clear 95 35 53 11.7 24 24 SE 9 15 29.69 1006 10 16 0.00 0.00
10:53 pm 22:53 Mostly Clear 94 34.4 57 13.9 29 29 SSE 12 19 29.72 1007 10 16 0.00 0.00
11:53 pm 23:53 Mostly Cloudy 92 33.3 59 15 33 33 S 21 33 29.73 1007 10 16 0.00 0.00

Powered by AerisWeather